Flag for Norway Weather past 2 weeks in Sandefjord, Norway

Now
54 °F

Passing clouds.


Feels Like: 52 °F
Forecast: 50 / 66 °F
Wind: 6 mph from Southwest

Location: Torp

Current Time: Aug 30, 2015 at 6:26:52 AM

Latest Report: Aug 30, 2015 at 5:50 AM


Visibility: N/A

Pressure: 30.04 "Hg

Humidity: 94%

Dew point: 52 °F

Location of SandefjordLocation

Historic Weather in Sandefjord — Graph

°F

Sandefjord temperature yesterday

Maximum temperature yesterday: 66 °F (at 1:50 PM)
Minimum temperature yesterday: 52 °F (at 5:50 AM)
Average temperature yesterday: 59 °F

Past Weeks' High & Low Weather Summary

 TemperatureHumidityPressure
High75 °F (Aug 23, 3:50 PM)100% (Aug 19, 5:20 AM)30.36 "Hg (Aug 19, 5:20 AM)
Low48 °F (Aug 21, 6:20 AM)38% (Aug 19, 5:50 PM)29.50 "Hg (Aug 27, 5:20 PM)
Average62 °F77%30.04 "Hg
* Reported Aug 15 4:20 AM — Aug 30 4:50 AM, Sandefjord, Weather by CustomWeather, © 2015

Note: Actual official high and low records may vary slightly from our data, if they occured in-between our weather recording intervals... More about our weather records

Advertising

Sandefjord weather history for previous 24 hours

 ConditionsComfort  
Time TempWeatherWind HumidityBarometerVisibility
4:50 AM
Sun, Aug 30
54 °FPassing clouds.6 mph94%30.04 "HgN/A
4:20 AM54 °FCool.5 mph94%30.04 "HgN/A
3:50 AM55 °FPassing clouds.8 mph88%30.04 "HgN/A
3:20 AM55 °FPassing clouds.10 mph88%30.04 "HgN/A
2:50 AM55 °FPartly cloudy.9 mph88%30.04 "HgN/A
2:20 AM55 °FPassing clouds.8 mph88%30.04 "HgN/A
1:50 AM55 °FPassing clouds.7 mph88%30.04 "HgN/A
1:20 AM55 °FPassing clouds.6 mph88%30.04 "HgN/A
12:50 AM55 °FCool.7 mph88%30.04 "HgN/A
12:20 AM55 °FCool.8 mph88%30.04 "HgN/A
11:50 PM
Sat, Aug 29
57 °FCool.10 mph88%30.04 "HgN/A
11:20 PM57 °FPartly cloudy.9 mph88%30.04 "HgN/A
10:50 PM57 °FClear.8 mph88%30.04 "Hg10 mi
10:20 PM57 °FClear.9 mph88%30.04 "Hg10 mi
9:50 PM59 °FClear.10 mph82%30.04 "Hg10 mi
9:20 PM59 °FSunny.10 mph88%30.04 "Hg10 mi
8:50 PM59 °FSunny.10 mph82%30.04 "Hg10 mi
8:20 PM61 °FSunny.12 mph77%30.01 "Hg10 mi
7:50 PM61 °FSunny.13 mph83%30.04 "Hg10 mi
7:20 PM61 °FSunny.16 mph83%30.04 "Hg10 mi
6:50 PM63 °FPassing clouds.15 mph77%30.04 "HgN/A
6:20 PM63 °FPassing clouds.16 mph77%30.04 "HgN/A
5:50 PM64 °FBroken clouds.16 mph73%30.04 "HgN/A
5:20 PM64 °FScattered clouds.20 mph64%30.04 "HgN/A
4:50 PM63 °FScattered clouds.20 mph73%30.04 "HgN/A
4:20 PM64 °FScattered clouds.18 mph64%30.04 "HgN/A
3:50 PM64 °FScattered showers. Scattered clouds.22 mph68%30.04 "HgN/A
3:20 PM64 °FScattered clouds.17 mph64%30.04 "HgN/A
2:50 PM64 °FBroken clouds.17 mph68%30.04 "HgN/A
2:20 PM64 °FScattered clouds.15 mph64%30.04 "HgN/A
1:50 PM66 °FScattered clouds.13 mph56%30.04 "HgN/A
1:20 PM64 °FScattered clouds.14 mph60%30.04 "HgN/A
12:50 PM64 °FScattered clouds.12 mph56%30.04 "HgN/A
11:50 AM64 °FSunny.13 mph60%30.04 "Hg10 mi
11:20 AM63 °FPassing clouds.12 mph59%30.01 "HgN/A
10:50 AM63 °FSunny.10 mph59%30.01 "Hg10 mi
9:50 AM61 °FSunny.9 mph68%30.01 "Hg10 mi
9:20 AM59 °FSunny.6 mph72%30.01 "Hg10 mi
8:50 AM57 °FPassing clouds.6 mph77%29.98 "HgN/A
7:50 AM55 °FSunny.7 mph82%29.98 "Hg10 mi
7:20 AM54 °FSunny.7 mph88%29.95 "Hg10 mi
6:50 AM54 °FClear.9 mph88%29.95 "Hg10 mi
6:20 AM52 °FClear.8 mph88%29.95 "Hg10 mi
Weather by CustomWeather, © 2015

See weather overviewHow to use our weather pages